Location: Fornova de Taro
(44.7000°N, 10.1000°E)
Time: 03:38:31
(UTC+00:00)

Cosmos 292 Rocket - Pass Details

Date: 27 September 2022
Orbit: 673 x 692 km, 74.0° (Epoch: 27 November)

Event Time Altitude Azimuth Distance (km) Brightness Sun altitude
Exits shadow 00:59:29 13° 50° (NE) 1,955 6.7 -40.6°
Drops below altitude 10° 01:00:08 10° 45° (NE) 2,154 7.0 -40.6°
Sets 01:02:46 0° 33° (NNE) 3,075 8.0 -40.3°
